Probability
42 29 26 3 0 0 0 0 0 0 0 0 0 3 3 0 0 0 6 10 13 19 35 48 58 58 65 61 65 58 58 52 52 55 52 48 48 42 45 45 45 52 48 45 42 45 48 48 48
35 29 26 0 0 0 0 0 0 0 0 0 0 3 3 6 3 10 10 10 10 13 19 32 52 52 48 39 48 45 39 42 42 39 42 32 29 26 26 32 32 42 39 39 39 35 32 35 45
39 35 3 0 0 0 0 0 0 0 0 0 0 6 6 6 3 6 6 6 10 19 19 42 48 39 39 35 35 35 32 32 29 32 26 23 23 16 16 16 32 32 26 32 32 32 29 29 32
23 3 0 0 0 0 0 0 0 0 0 0 0 3 6 6 6 3 6 10 10 16 19 39 42 45 39 32 32 23 19 19 23 19 16 16 19 16 16 26 29 23 23 23 23 19 19 26 32
6 0 0 0 0 0 0 0 0 0 0 0 0 0 3 6 3 6 10 10 10 10 16 32 32 23 16 16 19 19 19 16 16 13 13 13 10 10 10 10 13 19 16 13 19 13 16 23 26
0 0 0 0 0 0 0 0 0 0 0 0 0 0 3 6 6 10 6 6 3 6 10 16 19 16 13 19 16 16 13 13 6 6 10 10 10 3 0 6 6 13 13 6 6 6 10 10 16
0 0 0 0 0 0 0 0 0 0 0 0 0 0 0 6 6 6 3 3 3 3 6 13 10 13 13 13 13 13 10 10 6 6 6 6 6 3 0 3 6 3 3 3 6 6 10 10 16
0 0 0 0 0 0 0 0 0 0 0 0 0 0 0 6 3 0 3 3 3 3 3 3 3 3 6 10 13 10 10 6 6 10 6 6 3 0 0 3 3 3 3 0 3 0 10 13 23
0 0 0 0 0 0 0 0 0 0 3 6 6 6 6 3 0 0 3 3 3 3 3 3 3 3 3 3 6 10 10 6 10 3 3 0 0 0 0 0 3 3 0 0 0 3 6 6 10
0 0 0 0 0 0 0 0 0 0 3 3 6 6 6 0 0 0 0 0 0 3 3 3 3 3 3 3 3 3 3 0 0 0 0 0 0 0 0 0 3 3 0 0 3 6 6 0 0
0 0 0 0 0 0 0 0 0 0 0 3 3 6 6 0 0 0 0 0 0 0 0 0 0 0 0 0 0 0 0 0 0 0 0 0 0 0 0 0 0 0 0 0 0 0 0 0 0
0 0 0 0 0 0 0 0 0 0 3 3 6 6 3 0 0 0 0 0 0 0 0 0 0 0 0 0 0 0 0 0 0 0 0 0 0 0 0 0 0 0 0 0 0 0 0 0 0
0 0 0 0 0 0 0 0 0 0 3 3 6 6 3 0 0 0 0 0 0 0 0 0 0 0 0 0 0 0 0 0 0 0 0 0 0 0 0 0 0 0 0 0 0 0 0 0 0
0 0 3 0 0 0 0 0 0 0 3 3 3 6 6 0 0 0 0 0 0 0 0 0 0 0 0 0 0 0 0 0 0 0 0 0 0 0 0 0 0 0 0 0 0 0 0 0 0
0 0 0 0 0 0 0 0 0 3 3 3 3 6 6 0 0 0 0 0 0 0 0 0 0 0 0 0 0 0 0 0 0 0 0 0 0 0 0 0 0 0 0 0 0 0 0 0 0
0 0 0 0 0 0 0 0 0 0 0 0 0 3 6 3 0 0 0 0 0 0 0 0 0 0 0 0 0 0 0 0 0 0 0 0 0 0 0 0 0 0 0 0 0 0 0 0 0
0 0 0 0 0 0 0 0 0 0 0 3 0 3 3 3 0 0 0 0 0 0 0 0 0 0 0 0 0 0 0 0 0 0 0 0 0 0 0 0 0 0 0 0 0 0 0 0 0
0 0 0 0 0 0 0 0 0 0 3 3 0 0 3 3 0 0 0 0 0 0 0 0 0 0 0 0 0 0 0 0 0 0 0 0 0 0 0 0 0 0 0 0 0 0 0 0 0
0 0 0 0 0 0 0 0 0 0 0 0 0 0 0 0 0 0 0 0 0 0 0 0 0 0 0 0 0 0 0 0 0 0 0 0 0 0 0 0 0 0 0 0 0 0 0 0 0
0 0 0 0 0 0 0 0 0 0 0 0 0 0 0 0 0 0 0 0 0 0 0 0 0 0 0 0 0 0 0 0 0 0 0 0 0 0 0 0 0 0 0 0 0 0 0 0 0
0 0 0 0 0 0 0 0 0 0 0 0 0 0 0 0 0 0 0 0 0 0 0 0 0 0 0 0 0 0 0 0 0 0 0 0 0 0 0 0 0 0 0 0 0 0 0 0 0
0 0 0 0 0 0 0 0 0 0 0 0 0 0 0 0 0 0 0 0 0 0 0 0 0 0 0 0 0 0 0 0 0 0 0 0 0 0 0 0 0 0 0 0 0 0 0 0 0
0 0 0 0 0 0 0 0 0 0 0 0 0 0 0 0 0 0 0 0 0 0 0 0 0 0 0 0 0 0 0 0 0 0 0 0 0 0 0 0 0 0 0 0 0 0 0 0 0
0 0 0 0 0 0 0 0 0 0 0 0 0 0 0 0 0 0 0 0 0 0 0 0 0 0 0 0 0 0 0 0 0 0 0 0 0 0 0 0 0 0 0 0 0 0 0 0 0
0 0 0 0 0 0 0 0 0 0 0 0 0 0 0 0 0 0 0 0 0 0 0 0 0 0 0 0 0 0 0 0 0 0 0 0 0 0 0 0 0 0 0 0 0 0 0 0 0
0 0 0 0 0 0 0 0 0 0 0 0 0 0 0 0 0 0 0 0 0 0 0 0 0 0 0 0 0 0 0 0 0 0 0 0 0 0 0 0 0 0 0 0 0 0 0 0 0
0 0 0 0 0 0 0 0 0 0 0 0 0 0 0 0 0 0 0 0 0 0 0 0 0 0 0 0 0 0 0 0 0 0 0 0 0 0 0 0 0 0 0 0 0 0 0 0 0
0 0 0 0 0 0 0 0 0 0 0 0 0 0 0 0 0 0 0 0 0 0 0 0 0 0 0 0 0 0 0 0 0 0 0 0 0 0 0 0 0 0 0 0 0 0 0 0 0
0 0 0 0 0 0 0 0 0 0 0 0 0 0 0 0 0 0 0 0 0 0 0 0 0 0 0 0 0 0 0 0 0 0 0 0 0 0 0 0 0 0 0 0 0 0 0 0 0
0 0 0 0 0 0 0 0 0 0 0 0 0 0 0 0 0 0 0 0 0 0 0 0 0 0 0 0 0 0 0 0 0 0 0 0 0 0 0 0 0 0 0 0 0 0 0 0 0
Height
5880 5880 5881 5883 5884 5884 5884 5885 5886 5886 5886 5886 5887 5887 5888 5889 5891 5894 5891 5891 5891 5892 5892 5892 5892 5892 5892 5892 5892 5892 5893 5893 5892 5892 5891 5891 5890 5889 5889 5888 5887 5886 5885 5885 5884 5883 5883 5883 5882
5878 5879 5880 5881 5882 5882 5883 5884 5884 5885 5885 5885 5886 5887 5888 5888 5889 5890 5890 5890 5891 5891 5892 5892 5892 5892 5892 5893 5893 5893 5893 5892 5892 5891 5891 5890 5889 5889 5888 5887 5886 5885 5884 5884 5883 5882 5882 5882 5881
5875 5877 5879 5879 5879 5881 5882 5882 5883 5883 5883 5885 5885 5886 5887 5888 5889 5889 5890 5890 5891 5891 5891 5892 5892 5892 5893 5893 5893 5893 5893 5892 5892 5891 5890 5890 5889 5888 5887 5886 5885 5884 5884 5883 5882 5881 5881 5881 5880
5873 5875 5877 5877 5877 5879 5880 5880 5881 5881 5882 5883 5884 5885 5886 5887 5888 5888 5889 5890 5890 5891 5891 5891 5892 5892 5893 5893 5893 5893 5892 5892 5892 5891 5890 5889 5888 5887 5886 5885 5884 5883 5882 5882 5881 5880 5880 5879 5879
5871 5873 5874 5874 5875 5877 5878 5878 5879 5879 5880 5881 5882 5884 5885 5886 5886 5887 5888 5889 5890 5890 5891 5891 5892 5892 5892 5892 5892 5892 5892 5892 5891 5890 5889 5888 5887 5886 5885 5884 5883 5882 5881 5880 5879 5879 5878 5878 5877
5869 5870 5871 5872 5873 5874 5875 5876 5877 5878 5878 5879 5881 5882 5883 5885 5885 5886 5887 5888 5889 5889 5890 5891 5891 5892 5892 5892 5892 5892 5892 5891 5891 5890 5889 5888 5887 5885 5884 5883 5882 5881 5879 5878 5878 5877 5877 5876 5876
5867 5868 5868 5869 5871 5872 5874 5874 5875 5876 5877 5878 5879 5881 5882 5884 5884 5885 5885 5887 5888 5889 5890 5890 5891 5892 5892 5892 5891 5891 5891 5891 5890 5889 5888 5887 5886 5884 5883 5882 5880 5879 5878 5877 5876 5875 5875 5874 5874
5863 5866 5866 5867 5869 5870 5872 5872 5873 5874 5875 5877 5878 5880 5881 5883 5884 5884 5885 5886 5887 5888 5889 5890 5890 5891 5891 5891 5891 5891 5890 5890 5889 5888 5887 5886 5885 5883 5882 5881 5879 5878 5876 5875 5874 5874 5873 5873 5872
5861 5864 5864 5865 5867 5868 5869 5870 5872 5872 5874 5875 5877 5878 5880 5881 5882 5884 5884 5885 5886 5887 5888 5889 5890 5890 5890 5890 5890 5890 5889 5889 5888 5887 5886 5885 5884 5882 5881 5879 5878 5877 5875 5874 5873 5873 5872 5871 5871
5859 5861 5862 5863 5865 5866 5867 5869 5870 5871 5872 5874 5875 5877 5878 5880 5882 5883 5884 5885 5885 5886 5887 5888 5889 5889 5890 5890 5889 5889 5889 5888 5888 5886 5885 5884 5883 5881 5880 5879 5877 5876 5874 5873 5872 5871 5870 5870 5869
5856 5858 5860 5861 5863 5864 5865 5867 5868 5869 5871 5873 5874 5876 5877 5879 5880 5882 5883 5884 5885 5886 5887 5888 5888 5889 5889 5889 5889 5888 5888 5887 5887 5886 5884 5883 5882 5881 5879 5878 5876 5875 5873 5872 5871 5870 5869 5868 5867
5855 5856 5858 5859 5861 5862 5864 5865 5867 5868 5870 5871 5873 5875 5876 5878 5879 5880 5882 5883 5884 5885 5886 5886 5887 5887 5888 5888 5888 5887 5887 5886 5886 5885 5884 5883 5881 5880 5878 5877 5875 5874 5872 5871 5870 5868 5867 5866 5865
5853 5854 5856 5857 5859 5861 5862 5864 5865 5867 5868 5870 5871 5873 5875 5877 5878 5879 5880 5881 5883 5884 5885 5886 5886 5886 5887 5887 5887 5886 5886 5886 5885 5884 5883 5882 5881 5879 5878 5876 5875 5873 5871 5870 5868 5867 5865 5864 5864
5851 5853 5854 5855 5857 5859 5860 5862 5864 5866 5867 5868 5870 5872 5874 5875 5877 5878 5879 5881 5882 5883 5884 5884 5885 5885 5886 5886 5886 5886 5885 5885 5884 5883 5882 5881 5880 5879 5877 5875 5874 5872 5870 5869 5867 5865 5864 5863 5862
5850 5852 5853 5854 5855 5857 5859 5861 5863 5864 5865 5867 5869 5871 5873 5874 5876 5877 5879 5880 5881 5882 5883 5883 5884 5884 5885 5885 5885 5885 5884 5884 5884 5883 5882 5881 5880 5878 5877 5875 5873 5871 5870 5868 5866 5864 5863 5862 5861
5849 5851 5852 5853 5854 5856 5860 5860 5861 5863 5864 5866 5868 5870 5872 5873 5875 5876 5877 5879 5880 5881 5882 5882 5882 5883 5883 5884 5884 5884 5884 5883 5883 5882 5881 5880 5879 5878 5876 5875 5873 5871 5869 5867 5865 5863 5862 5860 5859
5848 5849 5851 5852 5853 5855 5858 5859 5860 5862 5864 5865 5867 5869 5871 5873 5874 5875 5877 5878 5879 5880 5881 5881 5881 5882 5882 5883 5883 5883 5883 5883 5882 5882 5881 5880 5879 5878 5876 5874 5873 5871 5869 5866 5864 5863 5861 5859 5858
5847 5848 5850 5851 5852 5854 5856 5858 5860 5861 5863 5864 5866 5868 5870 5871 5873 5875 5876 5877 5878 5879 5880 5880 5880 5881 5881 5882 5882 5883 5883 5882 5882 5881 5880 5879 5878 5877 5876 5874 5872 5870 5868 5866 5864 5862 5860 5859 5858
5846 5848 5849 5851 5851 5853 5855 5857 5858 5860 5862 5864 5865 5867 5869 5870 5872 5874 5875 5876 5877 5878 5879 5879 5880 5880 5881 5881 5882 5882 5882 5882 5881 5881 5880 5879 5878 5877 5875 5874 5872 5870 5868 5866 5864 5862 5860 5859 5857
5846 5847 5849 5850 5851 5852 5854 5856 5858 5859 5861 5863 5864 5866 5868 5869 5871 5873 5874 5875 5876 5877 5878 5878 5879 5879 5880 5880 5881 5881 5881 5881 5881 5880 5879 5879 5877 5876 5875 5873 5872 5870 5868 5866 5864 5862 5860 5858 5857
5845 5847 5848 5849 5850 5851 5853 5855 5857 5858 5860 5861 5863 5865 5866 5868 5870 5871 5873 5874 5875 5876 5877 5877 5878 5879 5879 5879 5879 5880 5880 5880 5880 5879 5879 5878 5877 5876 5874 5873 5871 5870 5868 5866 5864 5862 5860 5859 5857
5845 5846 5847 5848 5850 5850 5853 5854 5856 5857 5859 5860 5862 5864 5865 5867 5869 5870 5872 5873 5874 5875 5876 5877 5877 5878 5878 5878 5878 5879 5879 5879 5879 5879 5878 5877 5876 5875 5874 5872 5871 5870 5868 5866 5864 5862 5861 5859 5857
5845 5846 5847 5848 5849 5850 5852 5853 5855 5855 5857 5859 5861 5863 5864 5866 5867 5869 5870 5872 5873 5874 5875 5876 5876 5876 5877 5877 5877 5878 5878 5878 5878 5878 5877 5876 5875 5874 5873 5872 5871 5869 5868 5866 5864 5862 5861 5859 5858
5844 5845 5846 5847 5848 5850 5851 5853 5854 5855 5856 5858 5860 5861 5863 5864 5866 5868 5869 5871 5872 5873 5873 5874 5875 5875 5876 5876 5876 5877 5877 5877 5877 5877 5876 5875 5875 5874 5872 5871 5870 5869 5867 5866 5864 5862 5861 5859 5858
5844 5845 5846 5846 5848 5849 5850 5851 5854 5854 5855 5856 5858 5860 5861 5863 5865 5867 5868 5869 5870 5871 5872 5873 5873 5874 5874 5875 5875 5876 5876 5876 5876 5875 5875 5874 5874 5873 5872 5870 5869 5868 5867 5865 5863 5862 5860 5859 5857
5843 5845 5846 5847 5847 5848 5849 5850 5853 5853 5854 5855 5856 5858 5860 5861 5863 5865 5866 5868 5869 5870 5870 5871 5872 5872 5873 5873 5874 5874 5874 5874 5874 5874 5874 5873 5872 5871 5870 5869 5868 5867 5866 5864 5862 5861 5859 5858 5856
5843 5844 5845 5846 5846 5847 5848 5850 5851 5852 5853 5854 5855 5856 5858 5859 5861 5863 5865 5866 5867 5868 5869 5869 5870 5871 5871 5872 5872 5873 5873 5873 5873 5873 5872 5872 5871 5870 5869 5868 5867 5866 5865 5863 5861 5860 5858 5857 5855
5842 5843 5844 5844 5845 5845 5847 5848 5850 5850 5851 5852 5853 5855 5856 5858 5860 5861 5863 5864 5865 5866 5867 5868 5868 5869 5870 5870 5871 5871 5871 5871 5871 5871 5871 5870 5870 5869 5868 5867 5866 5865 5863 5862 5860 5859 5857 5855 5854
5841 5842 5842 5843 5844 5845 5845 5849 5848 5849 5850 5851 5852 5853 5854 5856 5858 5859 5861 5862 5863 5864 5865 5866 5866 5867 5867 5868 5869 5869 5869 5869 5869 5869 5868 5868 5868 5867 5866 5865 5864 5863 5862 5860 5859 5857 5856 5854 5852
5839 5840 5841 5842 5842 5843 5844 5849 5846 5847 5847 5849 5850 5851 5852 5853 5855 5857 5858 5860 5861 5862 5863 5863 5864 5865 5865 5866 5866 5866 5866 5866 5866 5866 5866 5866 5865 5865 5864 5863 5862 5861 5860 5858 5856 5855 5853 5852 5850
Wind_Speed
9 8 8 8 7 7 6 5 4 4 5 6 6 5 5 5 5 4 4 3 3 3 2 2 2 2 3 3 3 2 2 1 0 1 2 3 3 3 4 4 4 4 4 4 4 5 5 5 5
10 9 9 8 8 8 8 6 5 5 6 6 6 5 5 5 4 4 4 3 3 3 3 3 3 2 3 3 3 3 2 1 1 2 2 3 3 3 4 4 4 5 5 5 5 5 5 5 5
11 11 10 9 9 9 9 7 6 5 6 7 6 6 6 5 5 5 5 4 4 4 3 3 2 2 2 2 2 2 1 1 1 2 3 3 4 3 4 4 5 5 5 5 6 6 6 6 5
11 11 11 11 11 11 10 9 7 6 7 7 7 7 6 6 6 5 5 5 4 4 3 3 3 2 2 2 2 1 1 1 2 2 3 3 4 4 4 4 5 6 6 6 6 6 6 6 6
12 12 13 12 12 11 11 9 8 8 8 7 7 7 6 6 6 6 5 5 5 4 4 4 4 3 2 1 1 1 1 1 2 3 4 4 5 5 4 5 5 6 6 6 7 7 7 6 6
12 13 13 13 12 12 10 9 9 8 8 8 7 7 7 7 6 6 5 5 5 5 5 5 4 3 2 1 1 1 1 2 2 3 4 4 5 5 5 5 6 6 6 6 7 7 6 6 6
12 13 13 13 13 12 11 10 8 7 7 8 7 7 7 7 7 6 6 6 6 6 5 5 4 3 2 1 1 1 2 2 3 4 4 5 5 5 6 6 6 6 6 6 6 6 6 6 6
12 13 14 14 13 11 11 10 9 9 8 8 8 7 7 8 7 6 6 6 6 6 6 6 4 3 2 1 1 2 2 3 4 4 5 5 6 6 6 6 6 6 6 6 5 5 5 6 6
12 13 14 14 12 11 11 9 8 9 9 8 8 7 7 7 7 7 6 6 6 6 6 6 4 2 2 2 2 2 2 3 4 5 5 6 6 6 6 6 6 6 5 5 5 5 6 6 6
12 13 13 14 12 12 11 9 8 8 9 9 8 8 8 7 7 7 6 7 7 7 7 5 4 3 2 2 1 2 2 3 4 5 5 6 6 6 6 6 6 5 5 5 5 6 6 7 7
12 12 12 13 12 10 10 9 9 8 8 8 8 8 8 8 7 7 6 7 8 7 7 6 5 4 3 2 1 1 2 3 4 4 5 6 6 6 6 6 6 5 5 5 6 7 7 7 7
11 12 12 12 12 10 9 8 8 9 8 8 8 8 8 8 7 7 7 7 8 8 8 7 6 5 4 2 1 1 2 3 3 4 5 5 6 5 5 6 6 6 6 6 7 7 7 7 7
11 11 11 10 10 10 10 9 8 8 7 8 9 9 9 8 8 7 7 7 8 8 8 7 6 5 4 3 2 2 2 2 3 3 4 5 5 6 6 6 6 6 7 7 7 7 7 7 7
10 10 10 10 10 10 9 9 9 9 8 9 9 9 9 8 8 7 7 7 7 7 7 7 7 5 4 3 2 2 2 2 2 3 4 5 5 6 7 7 7 7 7 7 7 7 7 6 6
10 10 10 10 9 9 9 8 8 9 9 10 10 10 9 9 9 8 7 7 7 7 7 7 7 5 4 4 3 1 1 2 2 3 3 4 5 6 7 7 7 7 7 7 7 7 6 6 5
9 9 10 9 8 8 9 9 8 9 9 10 10 9 9 10 10 9 8 7 7 7 6 6 6 5 4 4 2 1 0 1 2 3 3 4 5 6 7 7 8 8 8 8 7 7 6 5 5
9 9 9 9 8 8 9 9 8 9 9 10 10 9 9 9 10 9 8 7 7 7 6 6 6 5 4 4 2 1 0 1 2 2 3 4 5 6 6 7 8 8 8 8 8 7 6 5 5
8 8 9 9 9 9 9 8 9 9 9 10 10 10 10 9 9 9 8 7 7 7 6 6 5 5 4 3 3 1 0 1 2 2 3 4 5 5 6 7 8 8 8 9 9 8 7 6 5
8 8 9 9 10 10 9 9 9 10 10 9 10 10 10 10 9 9 8 8 7 7 6 6 5 5 4 3 3 2 1 1 2 2 3 4 4 5 6 6 7 8 9 9 9 8 8 7 6
7 7 9 10 10 10 9 9 10 10 10 10 10 10 10 10 10 9 8 8 7 6 6 6 5 4 4 3 3 2 1 1 2 3 3 3 4 5 6 6 7 8 9 9 9 9 8 7 7
6 7 9 9 9 9 10 11 10 10 10 11 10 11 11 11 10 10 9 8 7 7 6 6 5 5 4 4 3 3 2 2 2 2 3 3 4 5 6 6 7 8 8 9 9 9 8 7 6
4 5 7 8 9 9 11 10 10 11 11 11 11 12 11 11 10 10 9 8 7 7 7 6 5 5 5 4 3 3 2 2 2 3 3 3 4 5 5 6 7 7 8 9 9 8 8 8 6
4 5 6 8 8 9 10 9 10 11 11 11 11 11 11 11 11 10 9 9 7 7 7 6 6 5 5 4 4 3 3 3 3 3 3 3 4 4 5 6 7 7 8 8 8 8 8 8 7
5 5 6 7 7 8 9 9 10 10 11 11 11 10 10 10 11 11 10 9 7 7 7 7 6 6 6 5 5 4 4 3 3 3 3 4 4 5 5 6 6 7 8 8 8 8 8 8 7
5 5 7 8 8 7 8 8 8 10 11 11 10 10 10 10 10 11 10 9 8 7 7 7 6 6 6 6 5 5 4 4 4 4 4 4 4 5 5 6 6 7 8 8 8 8 8 8 7
6 5 6 7 8 8 8 8 8 9 10 10 10 10 10 11 11 11 10 9 8 7 7 7 7 7 7 7 6 5 5 4 4 4 4 4 5 5 5 6 6 7 8 9 9 9 9 8 8
6 6 6 6 7 7 8 8 8 9 9 10 10 10 10 11 11 11 10 9 9 8 8 7 7 7 7 7 7 6 5 5 5 5 5 5 5 5 6 6 7 8 8 9 10 10 10 10 9
7 6 6 6 6 7 7 8 8 8 8 9 9 11 11 11 11 11 10 10 9 8 8 7 8 8 7 7 7 6 6 5 5 6 6 5 5 6 6 7 8 8 9 9 10 10 11 11 11
8 7 7 8 7 7 7 8 8 8 8 8 9 10 10 11 11 11 11 10 10 9 8 9 9 8 8 8 8 7 7 7 7 7 6 6 6 7 7 8 9 9 9 10 11 12 12 12 13
8 8 8 9 9 9 9 8 8 8 8 8 9 9 9 11 12 12 12 11 9 9 9 9 9 10 10 9 8 8 8 8 8 7 7 7 8 8 9 9 10 10 11 12 12 13 13 14 14
Wind_Direction
239 236 234 231 230 229 236 236 234 223 211 208 206 197 198 200 195 197 187 179 171 157 152 155 127 129 130 128 126 123 133 121 15 325 319 313 299 293 299 302 301 304 293 287 289 288 280 272 261
237 235 234 232 230 230 235 237 236 221 211 214 216 207 202 204 203 198 188 186 180 180 172 155 147 135 129 131 124 120 121 115 345 334 325 314 303 298 298 297 296 304 296 288 293 293 286 278 267
235 233 233 232 232 232 234 234 238 232 217 218 222 211 206 207 211 204 194 191 189 185 179 159 161 154 131 128 120 126 109 31 358 341 331 316 317 310 301 300 294 298 294 291 294 294 286 279 274
235 231 230 231 232 230 233 230 231 223 223 223 221 217 217 217 210 205 204 199 192 184 178 172 171 156 141 135 130 123 40 345 337 338 333 324 320 317 312 305 299 297 294 292 293 292 286 279 274
233 230 229 231 232 229 230 228 227 228 229 222 214 213 215 208 207 210 201 195 191 184 179 171 168 168 174 159 160 278 308 326 327 326 334 331 324 319 312 308 305 299 297 295 292 292 287 279 272
231 228 229 231 231 227 225 223 226 229 226 215 208 208 207 203 205 201 198 200 195 190 186 180 175 181 189 188 191 294 299 318 325 324 330 330 324 321 317 313 307 300 297 295 291 288 283 275 271
230 229 231 231 232 229 222 222 223 222 215 211 207 206 204 197 199 199 201 199 199 196 190 178 180 189 192 208 246 302 313 325 322 326 331 329 326 324 324 324 316 308 303 295 290 285 283 275 269
231 231 232 234 234 229 224 225 228 222 208 210 209 206 196 192 194 199 203 200 205 202 189 184 189 195 205 224 278 296 309 313 318 324 328 330 330 331 330 325 321 315 310 302 294 286 285 283 276
231 230 231 232 229 226 225 222 223 215 207 207 204 203 196 195 193 199 203 200 200 191 186 189 190 200 221 240 281 311 319 318 320 325 330 334 337 335 330 326 326 322 317 312 304 298 296 292 286
228 228 227 230 225 224 222 218 217 214 210 207 205 201 201 201 200 198 196 198 193 188 186 186 192 204 226 235 285 325 338 336 325 324 330 338 339 338 333 334 333 327 321 315 310 304 298 294 290
227 225 223 227 224 224 225 216 208 208 207 208 205 205 203 202 203 203 203 195 192 190 192 193 200 208 210 218 265 319 345 339 336 340 340 343 343 341 338 337 336 334 328 319 311 309 303 296 291
223 224 226 230 220 215 215 215 209 207 208 202 197 195 197 195 198 200 199 196 193 192 194 196 201 205 201 209 239 295 339 335 341 349 349 351 350 346 345 342 342 339 333 322 315 314 309 299 292
218 220 222 227 221 216 215 215 209 206 203 199 198 194 191 191 195 196 190 187 190 191 196 202 202 200 199 209 238 285 318 327 332 347 354 358 359 353 348 348 346 343 336 329 325 323 318 306 297
213 213 212 214 210 211 211 211 205 204 200 196 192 186 182 186 187 184 183 180 187 195 199 204 203 198 204 217 234 266 306 330 345 356 2 7 6 2 358 356 352 350 345 339 332 327 320 313 304
207 210 210 207 205 201 202 203 204 198 193 189 183 180 182 184 183 181 187 190 188 193 199 201 201 201 203 209 213 239 331 352 6 4 8 8 5 7 6 5 1 358 355 349 344 339 332 323 312
202 202 206 206 206 203 201 200 196 194 189 186 185 181 183 185 185 184 188 190 187 191 197 201 201 201 196 198 194 213 341 5 8 6 10 10 5 7 8 4 5 6 5 1 356 351 344 338 328
197 197 197 197 193 195 197 195 193 191 186 182 183 185 184 183 184 181 181 187 191 195 197 200 199 193 187 188 188 189 122 18 5 1 7 6 3 5 8 10 11 13 12 9 5 360 354 348 341
200 199 194 193 187 190 194 194 191 188 186 182 184 186 186 182 184 182 183 186 191 196 194 194 194 185 181 187 204 217 223 343 351 349 358 2 4 5 7 13 13 13 14 12 10 7 3 357 351
193 196 195 192 188 189 193 195 191 186 186 185 185 187 189 187 186 187 186 187 190 192 193 197 189 187 189 203 218 221 250 311 331 345 354 1 4 6 5 12 13 14 15 15 14 11 5 1 358
192 196 195 194 191 192 196 195 190 188 189 189 190 191 188 189 188 189 188 188 189 193 195 195 193 191 193 208 222 226 248 291 314 334 355 4 1 2 4 9 13 13 15 16 14 11 7 4 2
184 194 196 194 191 195 195 189 190 193 193 193 193 191 188 191 191 192 190 191 192 199 199 201 204 201 205 216 222 219 228 255 295 318 332 347 354 359 4 9 13 14 17 16 13 11 10 8 6
175 189 194 193 190 193 194 188 191 194 194 192 191 192 194 192 193 193 193 193 195 205 207 211 211 212 220 224 230 230 227 254 290 308 319 329 341 352 357 4 9 10 11 12 11 10 10 6 4
178 192 193 189 184 185 191 188 187 197 196 196 194 196 196 193 192 196 199 199 201 210 214 214 217 221 221 227 235 222 236 268 290 303 316 326 335 342 349 356 0 1 3 6 8 8 7 6 4
172 178 182 186 185 185 190 191 188 196 195 198 198 200 197 196 194 197 202 203 207 210 215 218 219 222 224 231 227 235 246 259 285 302 313 322 326 331 339 347 353 354 354 358 1 3 2 1 1
169 170 178 184 188 188 192 191 189 196 193 195 199 202 204 203 198 199 205 208 213 221 225 223 223 225 226 233 237 240 246 258 279 291 304 313 322 328 332 336 342 346 348 349 351 352 353 350 349
178 183 188 192 193 193 198 193 190 191 194 195 200 204 203 202 200 202 208 213 219 227 229 228 231 234 237 241 241 241 247 261 277 287 297 306 315 322 324 327 331 334 339 342 342 342 342 339 337
194 197 194 196 198 205 200 195 192 195 198 200 203 206 206 202 207 211 214 218 221 228 231 231 234 237 240 242 240 241 248 259 271 280 288 297 306 313 319 321 324 328 332 336 337 334 333 333 329
213 206 210 213 216 212 205 204 202 198 199 198 205 209 207 206 212 216 216 217 218 225 232 235 236 236 240 240 240 246 255 266 271 273 281 288 295 304 311 315 318 322 326 331 332 331 328 325 324
216 219 224 228 232 226 219 213 209 207 206 206 206 209 211 213 215 214 217 218 221 227 234 234 233 232 236 239 241 249 258 266 268 271 275 282 289 297 304 308 312 315 319 322 325 326 324 321 320
227 228 228 231 231 232 233 221 219 220 221 216 211 211 210 212 215 218 219 219 224 229 233 234 237 240 242 244 247 252 256 260 264 269 275 283 287 292 297 301 305 308 312 314 317 318 318 317 316